Wind_Speed
21 19 18 17 16 15 15 15 15 14 14 14 13 12 11 11 11 12 12 13 13 15 16 17 18 20 21 22 22 21 18 19 20 20 19 19 18 20 20 19 21 19 21 21 17
25 24 23 22 21 21 20 19 19 18 18 18 17 17 17 18 18 18 18 19 20 21 22 22 24 26 25 24 24 21 20 21 21 20 21 25 26 25 23 20 24 24 24 24 21
29 28 27 27 26 25 24 22 21 21 20 19 20 22 22 22 23 23 23 24 25 26 27 28 29 29 26 22 24 21 21 23 23 24 23 26 29 28 24 20 27 23 25 29 27
33 32 31 30 29 28 27 26 24 23 22 22 22 23 24 25 27 28 28 29 30 31 31 31 29 24 21 21 21 21 23 24 27 28 29 29 28 26 26 26 24 25 27 28 30
36 36 35 34 33 32 31 30 28 27 27 27 27 28 27 28 32 34 33 34 35 35 33 28 25 23 24 25 25 23 25 26 30 31 31 29 29 28 28 25 24 27 27 29 31
38 38 37 37 36 35 35 34 33 32 32 33 33 33 33 34 35 37 35 33 32 30 28 29 30 29 29 27 28 27 28 29 29 32 32 31 30 31 31 26 27 28 31 31 35
41 41 40 39 38 37 37 37 37 37 38 38 38 37 34 31 30 30 30 29 29 30 33 34 35 34 31 30 31 32 33 30 33 37 36 36 32 35 34 31 26 30 32 34 36
40 40 41 43 43 43 41 41 42 41 41 39 37 35 33 30 32 33 34 34 35 35 35 35 34 35 34 35 36 36 39 36 35 38 39 39 37 34 35 36 27 30 33 37 34
42 42 41 42 43 42 41 40 40 39 39 38 38 38 37 34 35 36 36 35 36 36 35 36 38 39 37 41 41 39 42 40 40 39 40 40 41 40 31 35 29 31 34 34 35
41 41 42 45 45 44 44 43 42 42 41 41 40 40 37 35 36 37 38 38 39 39 40 42 44 41 38 41 41 42 43 43 44 43 46 48 43 43 43 38 36 38 35 32 31
43 43 44 45 43 42 42 42 42 42 39 40 41 41 41 38 38 38 38 39 39 39 41 42 42 39 40 41 42 42 45 48 47 50 53 50 48 44 42 42 43 42 35 31 34
44 45 46 47 45 44 44 44 43 44 42 39 40 42 42 41 43 41 40 41 41 41 43 43 44 42 44 45 47 48 50 50 53 51 53 49 48 42 39 44 44 45 44 41 38
48 48 48 48 48 45 45 45 46 46 47 41 44 47 48 46 45 43 43 44 43 43 42 44 44 43 44 48 48 46 47 48 49 48 45 49 49 42 41 44 45 43 42 40 37
50 49 50 51 50 49 49 52 53 53 51 53 50 49 50 49 48 42 37 38 39 33 32 39 37 37 39 41 44 44 45 45 44 47 47 47 52 46 49 49 48 48 46 46 41
54 52 53 54 54 53 55 52 51 49 55 53 53 50 44 42 42 39 37 37 38 36 37 38 40 38 38 41 44 45 46 45 45 47 51 49 53 51 52 51 51 52 50 48 45
55 55 55 55 54 52 48 46 45 45 55 51 50 46 44 42 42 42 40 38 38 40 42 44 44 43 44 43 43 45 48 48 49 50 54 51 53 54 53 52 51 51 51 50 47
51 52 53 53 52 49 45 42 41 48 49 49 45 44 44 43 44 42 42 42 40 40 41 42 41 42 44 45 45 47 49 48 51 53 54 54 56 54 52 52 53 53 53 52 51
48 49 46 46 47 45 44 43 46 50 45 46 46 47 47 46 46 45 46 44 45 45 44 43 42 43 46 47 48 48 49 49 51 52 51 50 54 50 52 53 54 53 54 55 54
45 46 48 48 46 45 43 48 50 48 50 47 49 49 50 48 46 46 46 45 46 45 43 45 44 41 41 44 47 51 53 55 58 58 57 54 53 52 51 52 54 55 55 56 58
49 48 47 46 46 46 48 53 55 53 52 53 52 51 48 45 45 44 43 46 43 45 45 49 50 52 52 53 52 52 53 55 54 55 56 52 47 50 50 50 52 55 59 60 61
56 53 48 48 49 55 56 56 56 52 49 49 49 46 45 45 45 46 49 49 50 55 55 57 58 55 55 52 50 51 50 49 51 53 55 55 52 51 54 55 58 59 60 61 63
51 49 50 54 53 52 57 52 52 48 47 50 52 50 50 50 55 58 59 61 62 57 54 51 52 53 49 50 50 50 46 49 53 54 56 58 58 54 55 56 57 59 61 62 65
54 52 55 62 63 54 57 54 52 53 51 54 57 58 58 61 63 63 58 57 56 56 54 51 53 53 53 52 50 48 49 52 56 58 58 59 60 54 57 58 60 63 65 68 69
62 59 60 67 61 60 63 61 55 54 56 59 60 62 65 63 58 59 59 55 54 53 53 52 53 53 51 52 52 53 52 54 58 60 59 61 59 58 58 61 64 65 66 70 72
62 64 66 69 67 57 54 59 59 63 60 57 61 64 63 60 59 60 57 56 55 52 52 52 52 55 53 55 58 58 57 58 62 59 60 63 64 65 66 69 70 70 71 73 77
56 53 59 52 48 55 53 57 65 64 66 67 67 65 63 62 61 58 55 52 51 51 52 53 56 58 57 57 59 62 60 63 62 63 67 68 72 69 72 72 73 74 75 77 80
59 55 64 56 58 61 68 69 66 70 74 70 68 66 62 58 54 54 51 50 53 55 55 57 59 59 61 61 62 66 58 61 64 64 69 73 74 74 74 74 76 78 80 81 81
Wind_Direction
244 245 247 250 256 260 265 270 269 265 264 256 252 249 252 256 264 272 278 282 287 290 293 298 300 306 307 299 296 295 292 285 290 295 298 302 304 302 303 300 300 305 308 314 321
247 249 252 255 258 264 267 269 268 264 260 256 254 254 258 265 271 273 278 283 287 289 292 297 300 303 298 294 290 293 290 288 290 286 294 302 306 305 301 299 291 295 297 297 303
251 253 256 259 262 264 266 267 265 260 258 256 256 259 262 266 271 274 277 281 285 288 292 294 296 294 291 287 284 291 286 287 283 283 289 297 302 306 308 301 291 295 295 295 296
251 254 257 260 263 265 267 266 262 259 258 258 260 263 267 271 275 275 279 281 285 288 290 290 291 289 287 285 283 281 280 289 286 290 291 294 297 296 303 297 302 294 291 288 289
252 253 255 257 259 262 264 264 262 259 260 262 262 264 268 272 275 277 277 280 282 284 286 286 286 289 285 283 282 282 282 285 286 288 285 288 288 294 291 297 299 296 290 287 286
252 253 254 255 257 257 259 260 261 261 263 265 266 267 269 271 273 276 278 278 279 279 280 285 290 287 283 283 282 282 283 284 286 282 283 285 286 288 292 292 288 293 292 288 282
254 254 254 255 256 256 256 258 259 262 265 268 269 271 271 271 270 273 277 280 280 280 282 286 286 285 286 283 284 285 284 286 284 285 287 288 287 289 290 288 285 288 290 288 288
254 255 256 256 256 257 257 259 262 265 267 268 269 270 269 270 273 274 277 277 278 279 281 282 285 285 286 287 286 287 286 283 281 284 287 286 284 287 292 290 288 283 286 287 294
255 256 256 257 257 258 259 260 262 264 266 268 270 271 271 271 270 271 273 275 276 278 280 282 281 283 286 287 286 286 285 286 286 286 289 292 292 291 280 284 287 282 284 290 294
254 255 257 259 260 261 261 262 263 264 266 269 271 273 273 273 273 274 274 275 277 279 281 281 282 284 286 284 286 286 289 287 286 287 289 290 297 296 295 290 288 285 291 295 290
257 258 257 258 261 263 263 265 266 266 267 268 271 270 274 274 274 276 277 280 281 281 280 280 282 284 280 280 282 284 284 287 291 290 291 292 294 293 292 293 290 287 288 288 289
264 261 260 261 261 263 265 266 266 268 268 269 270 273 273 275 276 278 280 280 281 280 279 281 279 280 281 280 281 281 281 284 285 286 288 291 290 288 291 288 291 293 292 290 287
266 260 260 262 264 264 267 270 271 271 273 269 272 273 275 275 279 282 281 282 281 278 281 281 282 281 278 279 282 283 283 285 287 288 289 289 288 291 291 289 289 291 291 293 290
264 261 259 262 265 268 272 274 273 273 272 273 273 271 272 277 281 287 286 285 283 282 277 282 282 278 280 285 286 288 288 287 287 288 287 285 288 293 291 293 294 295 294 296 300
261 260 260 261 266 270 273 274 273 271 268 273 276 279 279 278 279 281 282 281 281 281 281 281 281 283 285 284 285 285 286 285 285 283 285 288 291 292 293 296 300 303 307 308 306
260 263 262 265 267 270 269 269 270 266 266 270 276 279 281 280 280 279 277 274 275 278 281 281 283 285 286 283 281 281 280 279 279 280 281 283 284 287 291 297 298 297 298 300 301
259 260 261 263 264 262 263 267 267 266 268 270 273 276 277 279 281 282 282 281 280 281 281 283 285 285 285 284 282 279 278 278 278 279 282 286 286 289 291 293 295 295 296 295 293
256 259 260 260 259 259 262 264 262 266 268 272 274 275 275 277 278 279 279 282 284 281 282 283 282 279 283 281 281 281 280 280 281 282 282 285 286 288 289 288 286 286 287 288 288
251 254 255 258 259 260 259 264 264 263 265 268 266 269 274 276 276 275 278 280 282 284 282 280 278 281 283 283 283 284 284 282 279 277 278 280 281 282 282 280 282 283 283 281 281
248 252 254 256 258 257 257 256 260 262 261 266 270 271 272 273 272 275 276 276 275 277 279 282 285 288 288 286 281 280 280 279 279 280 278 280 278 282 281 282 282 282 282 284 285
251 250 251 254 250 244 250 254 260 263 269 269 268 266 268 268 267 269 270 273 276 279 282 284 284 285 286 286 276 273 273 273 271 272 276 275 275 279 279 279 279 279 280 281 281
242 242 246 236 236 241 250 253 258 263 264 264 264 269 268 268 272 273 282 285 286 287 284 282 282 283 283 274 271 271 271 270 268 270 272 276 277 283 284 282 281 280 280 278 277
234 238 240 235 238 250 256 261 264 263 264 265 267 269 272 278 285 288 289 286 285 285 287 287 283 283 283 279 274 270 271 272 272 273 273 274 282 284 282 281 278 277 277 277 278
239 239 242 241 243 254 259 264 264 266 267 271 277 276 281 285 282 281 280 280 282 285 287 285 284 283 284 278 276 273 274 274 273 274 278 279 285 283 285 284 282 282 283 283 285
249 250 249 255 257 268 265 263 274 281 278 276 276 278 279 277 278 279 279 280 280 281 279 278 277 274 273 270 271 272 273 273 274 279 280 283 281 283 282 282 283 285 285 285 285
263 265 269 262 267 262 250 271 280 274 271 273 274 275 274 276 276 276 277 276 274 275 272 272 271 270 270 269 269 268 271 272 275 276 280 285 284 286 286 286 286 287 287 287 288
255 256 241 255 268 258 263 272 270 263 268 270 270 268 271 273 274 276 273 270 272 273 274 272 271 269 269 270 271 270 278 274 276 278 281 282 285 287 288 288 289 290 291 291 291
Height
5864 5865 5866 5868 5869 5870 5871 5871 5872 5873 5874 5874 5875 5875 5876 5877 5877 5878 5878 5878 5879 5878 5878 5878 5877 5878 5877 5875 5874 5873 5874 5871 5870 5869 5870 5869 5869 5868 5867 5866 5864 5865 5862 5861 5860
5860 5861 5863 5864 5865 5866 5867 5867 5868 5869 5870 5871 5872 5872 5873 5874 5874 5874 5875 5874 5874 5874 5874 5874 5873 5873 5873 5872 5870 5871 5870 5868 5867 5866 5865 5863 5863 5863 5864 5864 5860 5859 5858 5856 5857
5855 5857 5858 5860 5861 5862 5862 5863 5864 5865 5866 5867 5868 5868 5869 5869 5870 5870 5871 5870 5870 5870 5869 5869 5869 5867 5867 5867 5866 5867 5866 5865 5863 5862 5862 5861 5859 5857 5858 5859 5854 5856 5854 5850 5849
5849 5851 5852 5854 5855 5856 5857 5858 5859 5859 5860 5862 5863 5863 5864 5865 5865 5864 5866 5865 5864 5864 5864 5863 5862 5862 5862 5861 5862 5862 5861 5860 5858 5857 5857 5856 5855 5854 5853 5852 5853 5850 5848 5847 5843
5843 5844 5846 5847 5849 5850 5852 5852 5853 5854 5855 5856 5857 5858 5859 5860 5859 5858 5860 5859 5859 5858 5857 5856 5856 5857 5856 5856 5856 5856 5856 5855 5853 5852 5851 5851 5849 5848 5848 5848 5847 5844 5842 5840 5837
5835 5837 5838 5840 5841 5843 5844 5845 5846 5848 5849 5849 5851 5851 5853 5854 5853 5850 5851 5852 5852 5851 5851 5850 5850 5850 5849 5850 5848 5849 5849 5848 5848 5845 5844 5844 5844 5842 5842 5844 5842 5840 5835 5834 5828
5827 5829 5830 5832 5834 5835 5836 5837 5838 5840 5841 5841 5842 5843 5845 5846 5845 5845 5844 5844 5844 5844 5844 5844 5843 5843 5843 5843 5842 5842 5840 5841 5839 5836 5837 5836 5839 5835 5835 5835 5837 5833 5830 5825 5822
5819 5820 5822 5824 5825 5827 5828 5829 5830 5832 5833 5833 5834 5835 5837 5839 5838 5838 5837 5837 5836 5837 5836 5836 5835 5835 5835 5835 5834 5834 5831 5832 5831 5828 5829 5829 5831 5832 5828 5824 5830 5827 5821 5816 5819
5811 5813 5814 5815 5816 5818 5820 5821 5822 5823 5824 5826 5827 5827 5829 5832 5830 5829 5829 5829 5828 5828 5828 5828 5826 5827 5828 5826 5825 5825 5822 5823 5822 5822 5820 5818 5817 5819 5824 5818 5819 5816 5814 5814 5811
5801 5804 5806 5806 5808 5811 5812 5813 5813 5815 5817 5818 5819 5820 5821 5823 5822 5822 5821 5822 5821 5821 5821 5819 5817 5818 5820 5817 5817 5815 5814 5813 5812 5813 5810 5808 5810 5807 5805 5809 5808 5804 5805 5806 5804
5792 5794 5796 5796 5799 5801 5804 5805 5807 5807 5809 5810 5809 5810 5809 5813 5813 5814 5814 5814 5814 5814 5812 5810 5810 5811 5808 5807 5806 5806 5804 5803 5805 5804 5800 5801 5799 5799 5800 5796 5794 5797 5796 5795 5793
5782 5785 5786 5788 5789 5791 5794 5795 5796 5796 5798 5800 5800 5799 5800 5801 5802 5805 5807 5805 5805 5804 5802 5802 5800 5801 5800 5799 5797 5795 5793 5794 5791 5791 5789 5790 5788 5791 5790 5786 5786 5786 5788 5787 5785
5771 5773 5776 5777 5779 5781 5783 5785 5785 5786 5786 5792 5790 5789 5788 5791 5791 5794 5794 5793 5792 5792 5793 5791 5791 5791 5790 5786 5788 5788 5786 5785 5782 5781 5780 5775 5775 5781 5780 5778 5776 5776 5775 5775 5775
5760 5762 5765 5766 5769 5771 5772 5772 5773 5774 5775 5774 5778 5779 5780 5780 5781 5781 5781 5782 5781 5782 5781 5780 5782 5780 5778 5778 5777 5776 5776 5776 5775 5772 5769 5767 5764 5770 5765 5764 5763 5762 5762 5760 5759
5747 5749 5752 5754 5757 5761 5761 5760 5761 5763 5761 5762 5760 5762 5767 5771 5771 5772 5771 5770 5771 5771 5772 5772 5770 5771 5771 5769 5767 5766 5764 5764 5763 5761 5759 5760 5756 5757 5753 5752 5752 5748 5744 5744 5746
5735 5737 5739 5742 5745 5747 5748 5748 5750 5752 5745 5751 5751 5754 5755 5756 5757 5758 5760 5761 5761 5760 5759 5760 5760 5761 5759 5758 5759 5759 5756 5754 5752 5752 5749 5749 5747 5750 5744 5741 5739 5737 5736 5734 5733
5722 5725 5727 5730 5733 5735 5737 5737 5740 5737 5738 5740 5743 5743 5744 5745 5745 5746 5747 5747 5749 5749 5748 5749 5750 5749 5748 5748 5748 5747 5746 5745 5742 5741 5741 5739 5738 5739 5735 5732 5729 5726 5725 5723 5721
5711 5713 5716 5718 5721 5724 5725 5727 5727 5727 5730 5731 5732 5733 5733 5733 5734 5735 5735 5736 5736 5736 5737 5738 5739 5738 5739 5736 5736 5735 5736 5734 5727 5730 5731 5730 5725 5727 5724 5720 5718 5716 5713 5709 5706
5699 5701 5706 5708 5711 5712 5714 5712 5714 5718 5718 5720 5721 5721 5721 5722 5724 5723 5724 5725 5723 5726 5727 5724 5726 5727 5727 5725 5725 5724 5723 5721 5714 5714 5713 5717 5715 5711 5710 5705 5704 5703 5699 5696 5693
5687 5690 5693 5695 5698 5699 5700 5699 5700 5706 5708 5708 5709 5709 5710 5709 5710 5711 5713 5713 5715 5716 5715 5714 5713 5713 5712 5711 5709 5709 5708 5705 5700 5695 5692 5698 5703 5699 5695 5692 5688 5686 5683 5681 5677
5674 5676 5680 5683 5685 5684 5684 5688 5690 5692 5693 5694 5696 5696 5698 5697 5698 5698 5697 5701 5702 5701 5704 5701 5701 5702 5698 5697 5693 5692 5691 5688 5685 5682 5678 5678 5685 5688 5682 5676 5673 5672 5669 5665 5662
5658 5661 5667 5667 5670 5669 5671 5677 5678 5680 5680 5681 5683 5685 5685 5684 5682 5682 5684 5684 5684 5685 5686 5686 5683 5686 5686 5679 5676 5676 5680 5675 5668 5670 5665 5660 5663 5671 5667 5660 5657 5654 5650 5647 5644
5641 5646 5650 5652 5651 5656 5660 5663 5662 5665 5667 5667 5668 5670 5670 5669 5666 5669 5668 5668 5669 5669 5669 5671 5667 5669 5672 5667 5664 5663 5665 5660 5654 5650 5650 5646 5647 5654 5649 5643 5638 5635 5631 5626 5625
5628 5630 5633 5636 5639 5642 5643 5646 5647 5650 5649 5651 5655 5655 5656 5656 5654 5653 5653 5653 5654 5655 5653 5652 5651 5651 5654 5649 5648 5647 5651 5646 5636 5633 5633 5630 5630 5636 5631 5622 5619 5617 5614 5607 5604
5609 5612 5618 5619 5625 5626 5625 5629 5630 5632 5633 5635 5637 5640 5640 5638 5640 5639 5638 5638 5638 5639 5636 5634 5634 5632 5636 5636 5630 5630 5633 5633 5621 5620 5610 5615 5611 5616 5612 5606 5602 5599 5596 5589 5582
5594 5597 5599 5603 5608 5609 5610 5616 5617 5617 5617 5622 5623 5624 5620 5621 5622 5623 5624 5621 5621 5621 5621 5618 5615 5615 5616 5616 5613 5610 5618 5613 5611 5605 5597 5594 5589 5594 5589 5587 5581 5577 5574 5567 5561
5578 5585 5586 5589 5591 5596 5598 5605 5603 5598 5597 5603 5607 5605 5605 5606 5605 5606 5607 5606 5603 5604 5607 5605 5602 5598 5596 5596 5593 5592 5607 5596 5592 5592 5584 5577 5575 5570 5567 5565 5561 5555 5550 5543 5539